This is the latest recevied weather packets stored in our database for station/object K3CHZ. If no packets are shown the sender has not sent any weather packets the latest 1 day(s).
| Time | Temp. | Humidity | Pressure | Rain* | Wind** | Luminosity | Snow |
|---|---|---|---|---|---|---|---|
| 1778027539 | 23.89° C | 34% | 1009.6 hPa | 0 mm | - | - | - |
| 1778027238 | 23.89° C | 34% | 1009.6 hPa | 0 mm | - | - | - |
| 1778026640 | 24.44° C | 33% | 1009.5 hPa | 0 mm | - | - | - |
| 1778026338 | 24.44° C | 33% | 1009.4 hPa | 0 mm | - | - | - |
| 1778025438 | 25° C | 32% | 1009.3 hPa | 0 mm | - | - | - |
| 1778025140 | 25° C | 32% | 1009.4 hPa | 0 mm | - | - | - |
| 1778024539 | 25° C | 31% | 1009.2 hPa | 0 mm | - | - | - |
| 1778024239 | 25.56° C | 30% | 1009.2 hPa | 0 mm | - | - | - |
| 1778023041 | 25.56° C | 30% | 1009.2 hPa | 0 mm | - | - | - |
| 1778022741 | 25.56° C | 30% | 1009.1 hPa | 0 mm | - | - | - |
| 1778019738 | 26.11° C | 30% | 1009.3 hPa | 0 mm | - | - | - |
| 1778018838 | 26.11° C | 31% | 1009.3 hPa | 0 mm | - | - | - |
| 1778017939 | 26.11° C | 31% | 1009.2 hPa | 0 mm | - | - | - |
| 1778017639 | 26.11° C | 31% | 1009.2 hPa | 0 mm | - | - | - |
| 1778017038 | 26.67° C | 33% | 1009.1 hPa | 0 mm | - | - | - |
| 1778016439 | 26.67° C | 32% | 1009.1 hPa | 0 mm | - | - | - |
| 1778015841 | 26.67° C | 34% | 1009 hPa | 0 mm | - | - | - |
| 1778015541 | 26.67° C | 33% | 1009 hPa | 0 mm | - | - | - |
| 1778015241 | 27.22° C | 33% | 1009 hPa | 0 mm | - | - | - |
| 1778014042 | 26.67° C | 30% | 1009 hPa | 0 mm | - | - | - |
| 1778013142 | 27.22° C | 31% | 1009 hPa | 0 mm | - | - | - |
| 1778011038 | 27.22° C | 30% | 1009.4 hPa | 0 mm | - | - | - |
| 1778009838 | 27.22° C | 30% | 1009.5 hPa | 0 mm | - | - | - |
| 1778009539 | 27.22° C | 31% | 1009.4 hPa | 0 mm | - | - | - |
| 1778009240 | 27.22° C | 31% | 1009.5 hPa | 0 mm | - | - | - |
* Rain latest hour (hover to see other rain measurements)
** Current wind speed in m/s (hover to see current wind gust speed)